Year,Month,Day,Hour,Minute,Value (Times are PST for insolation in W/m^2)
2018,02,24,00,00,0.00
2018,02,24,00,01,0.00
2018,02,24,00,02,0.00
2018,02,24,00,03,0.00
2018,02,24,00,04,0.00
2018,02,24,00,05,0.00
2018,02,24,00,06,0.00
2018,02,24,00,07,0.00
2018,02,24,00,08,0.00
2018,02,24,00,09,0.00
2018,02,24,00,10,0.00
2018,02,24,00,11,0.00
2018,02,24,00,12,0.00
2018,02,24,00,13,0.00
2018,02,24,00,14,0.00
2018,02,24,00,15,0.00
2018,02,24,00,16,0.00
2018,02,24,00,17,0.00
2018,02,24,00,18,0.00
2018,02,24,00,19,0.00
2018,02,24,00,20,0.00
2018,02,24,00,21,0.00
2018,02,24,00,22,0.00
2018,02,24,00,23,0.00
2018,02,24,00,24,0.00
2018,02,24,00,25,0.00
2018,02,24,00,26,0.00
2018,02,24,00,27,0.00
2018,02,24,00,28,0.00
2018,02,24,00,29,0.00
2018,02,24,00,30,0.00
2018,02,24,00,31,0.00
2018,02,24,00,32,0.00
2018,02,24,00,33,0.00
2018,02,24,00,34,0.00
2018,02,24,00,35,0.00
2018,02,24,00,36,0.00
2018,02,24,00,37,0.00
2018,02,24,00,38,0.00
2018,02,24,00,39,0.00
2018,02,24,00,40,0.00
2018,02,24,00,41,0.00
2018,02,24,00,42,0.00
2018,02,24,00,43,0.00
2018,02,24,00,44,0.00
2018,02,24,00,45,0.00
2018,02,24,00,46,0.00
2018,02,24,00,47,0.00
2018,02,24,00,48,0.00
2018,02,24,00,49,0.00
2018,02,24,00,50,0.00
2018,02,24,00,51,0.00
2018,02,24,00,52,0.00
2018,02,24,00,53,0.00
2018,02,24,00,54,0.00
2018,02,24,00,55,0.00
2018,02,24,00,56,0.00
2018,02,24,00,57,0.00
2018,02,24,00,58,0.00
2018,02,24,00,59,0.00
2018,02,24,01,00,0.00
2018,02,24,01,01,0.00
2018,02,24,01,02,0.00
2018,02,24,01,03,0.00
2018,02,24,01,04,0.00
2018,02,24,01,05,0.00
2018,02,24,01,06,0.00
2018,02,24,01,07,0.00
2018,02,24,01,08,0.00
2018,02,24,01,09,0.00
2018,02,24,01,10,0.00
2018,02,24,01,11,0.00
2018,02,24,01,12,0.00
2018,02,24,01,13,0.00
2018,02,24,01,14,0.00
2018,02,24,01,15,0.00
2018,02,24,01,16,0.00
2018,02,24,01,17,0.00
2018,02,24,01,18,0.00
2018,02,24,01,19,0.00
2018,02,24,01,20,0.00
2018,02,24,01,21,0.00
2018,02,24,01,22,0.00
2018,02,24,01,23,0.00
2018,02,24,01,24,0.00
2018,02,24,01,25,0.00
2018,02,24,01,26,0.00
2018,02,24,01,27,0.00
2018,02,24,01,28,0.00
2018,02,24,01,29,0.00
2018,02,24,01,30,0.00
2018,02,24,01,31,0.00
2018,02,24,01,32,0.00
2018,02,24,01,33,0.00
2018,02,24,01,34,0.00
2018,02,24,01,35,0.00
2018,02,24,01,36,0.00
2018,02,24,01,37,0.00
2018,02,24,01,38,0.00
2018,02,24,01,39,0.00
2018,02,24,01,40,0.00
2018,02,24,01,41,0.00
2018,02,24,01,42,0.00
2018,02,24,01,43,0.00
2018,02,24,01,44,0.00
2018,02,24,01,45,0.00
2018,02,24,01,46,0.00
2018,02,24,01,47,0.00
2018,02,24,01,48,0.00
2018,02,24,01,49,0.00
2018,02,24,01,50,0.00
2018,02,24,01,51,0.00
2018,02,24,01,52,0.00
2018,02,24,01,53,0.00
2018,02,24,01,54,0.00
2018,02,24,01,55,0.00
2018,02,24,01,56,0.00
2018,02,24,01,57,0.00
2018,02,24,01,58,0.00
2018,02,24,01,59,0.00
2018,02,24,02,00,0.00
2018,02,24,02,01,0.00
2018,02,24,02,02,0.00
2018,02,24,02,03,0.00
2018,02,24,02,04,0.00
2018,02,24,02,05,0.00
2018,02,24,02,06,0.00
2018,02,24,02,07,0.00
2018,02,24,02,08,0.00
2018,02,24,02,09,0.00
2018,02,24,02,10,0.00
2018,02,24,02,11,0.00
2018,02,24,02,12,0.00
2018,02,24,02,13,0.00
2018,02,24,02,14,0.00
2018,02,24,02,15,0.00
2018,02,24,02,16,0.00
2018,02,24,02,17,0.00
2018,02,24,02,18,0.00
2018,02,24,02,19,0.00
2018,02,24,02,20,0.00
2018,02,24,02,21,0.00
2018,02,24,02,22,0.00
2018,02,24,02,23,0.00
2018,02,24,02,24,0.00
2018,02,24,02,25,0.00
2018,02,24,02,26,0.00
2018,02,24,02,27,0.00
2018,02,24,02,28,0.00
2018,02,24,02,29,0.00
2018,02,24,02,30,0.00
2018,02,24,02,31,0.00
2018,02,24,02,32,0.00
2018,02,24,02,33,0.00
2018,02,24,02,34,0.00
2018,02,24,02,35,0.00
2018,02,24,02,36,0.00
2018,02,24,02,37,0.00
2018,02,24,02,38,0.00
2018,02,24,02,39,0.00
2018,02,24,02,40,0.00
2018,02,24,02,41,0.00
2018,02,24,02,42,0.00
2018,02,24,02,43,0.00
2018,02,24,02,44,0.00
2018,02,24,02,45,0.00
2018,02,24,02,46,0.00
2018,02,24,02,47,0.00
2018,02,24,02,48,0.00
2018,02,24,02,49,0.00
2018,02,24,02,50,0.00
2018,02,24,02,51,0.00
2018,02,24,02,52,0.00
2018,02,24,02,53,0.00
2018,02,24,02,54,0.00
2018,02,24,02,55,0.00
2018,02,24,02,56,0.00
2018,02,24,02,57,0.00
2018,02,24,02,58,0.00
2018,02,24,02,59,0.00
2018,02,24,03,00,0.00
2018,02,24,03,01,0.00
2018,02,24,03,02,0.00
2018,02,24,03,03,0.00
2018,02,24,03,04,0.00
2018,02,24,03,05,0.00
2018,02,24,03,06,0.00
2018,02,24,03,07,0.00
2018,02,24,03,08,0.00
2018,02,24,03,09,0.00
2018,02,24,03,10,0.00
2018,02,24,03,11,0.00
2018,02,24,03,12,0.00
2018,02,24,03,13,0.00
2018,02,24,03,14,0.00
2018,02,24,03,15,0.00
2018,02,24,03,16,0.00
2018,02,24,03,17,0.00
2018,02,24,03,18,0.00
2018,02,24,03,19,0.00
2018,02,24,03,20,0.00
2018,02,24,03,21,0.00
2018,02,24,03,22,0.00
2018,02,24,03,23,0.00
2018,02,24,03,24,0.00
2018,02,24,03,25,0.00
2018,02,24,03,26,0.00
2018,02,24,03,27,0.00
2018,02,24,03,28,0.00
2018,02,24,03,29,0.00
2018,02,24,03,30,0.00
2018,02,24,03,31,0.00
2018,02,24,03,32,0.00
2018,02,24,03,33,0.00
2018,02,24,03,34,0.00
2018,02,24,03,35,0.00
2018,02,24,03,36,0.00
2018,02,24,03,37,0.00
2018,02,24,03,38,0.00
2018,02,24,03,39,0.00
2018,02,24,03,40,0.00
2018,02,24,03,41,0.00
2018,02,24,03,42,0.00
2018,02,24,03,43,0.00
2018,02,24,03,44,0.00
2018,02,24,03,45,0.00
2018,02,24,03,46,0.00
2018,02,24,03,47,0.00
2018,02,24,03,48,0.00
2018,02,24,03,49,0.00
2018,02,24,03,50,0.00
2018,02,24,03,51,0.00
2018,02,24,03,52,0.00
2018,02,24,03,53,0.00
2018,02,24,03,54,0.00
2018,02,24,03,55,0.00
2018,02,24,03,56,0.00
2018,02,24,03,57,0.00
2018,02,24,03,58,0.00
2018,02,24,03,59,0.00
2018,02,24,04,00,0.00
2018,02,24,04,01,0.00
2018,02,24,04,02,0.00
2018,02,24,04,03,0.00
2018,02,24,04,04,0.00
2018,02,24,04,05,0.00
2018,02,24,04,06,0.00
2018,02,24,04,07,0.00
2018,02,24,04,08,0.00
2018,02,24,04,09,0.00
2018,02,24,04,10,0.00
2018,02,24,04,11,0.00
2018,02,24,04,12,0.00
2018,02,24,04,13,0.00
2018,02,24,04,14,0.00
2018,02,24,04,15,0.00
2018,02,24,04,16,0.00
2018,02,24,04,17,0.00
2018,02,24,04,18,0.00
2018,02,24,04,19,0.00
2018,02,24,04,20,0.00
2018,02,24,04,21,0.00
2018,02,24,04,22,0.00
2018,02,24,04,23,0.00
2018,02,24,04,24,0.00
2018,02,24,04,25,0.00
2018,02,24,04,26,0.00
2018,02,24,04,27,0.00
2018,02,24,04,28,0.00
2018,02,24,04,29,0.00
2018,02,24,04,30,0.00
2018,02,24,04,31,0.00
2018,02,24,04,32,0.00
2018,02,24,04,33,0.00
2018,02,24,04,34,0.00
2018,02,24,04,35,0.00
2018,02,24,04,36,0.00
2018,02,24,04,37,0.00
2018,02,24,04,38,0.00
2018,02,24,04,39,0.00
2018,02,24,04,40,0.00
2018,02,24,04,41,0.00
2018,02,24,04,42,0.00
2018,02,24,04,43,0.00
2018,02,24,04,44,0.00
2018,02,24,04,45,0.00
2018,02,24,04,46,0.00
2018,02,24,04,47,0.00
2018,02,24,04,48,0.00
2018,02,24,04,49,0.00
2018,02,24,04,50,0.00
2018,02,24,04,51,0.00
2018,02,24,04,52,0.00
2018,02,24,04,53,0.00
2018,02,24,04,54,0.00
2018,02,24,04,55,0.00
2018,02,24,04,56,0.00
2018,02,24,04,57,0.00
2018,02,24,04,58,0.00
2018,02,24,04,59,0.00
2018,02,24,05,00,0.00
2018,02,24,05,01,0.00
2018,02,24,05,02,0.00
2018,02,24,05,03,0.00
2018,02,24,05,04,0.00
2018,02,24,05,05,0.00
2018,02,24,05,06,0.00
2018,02,24,05,07,0.00
2018,02,24,05,08,0.00
2018,02,24,05,09,0.00
2018,02,24,05,10,0.00
2018,02,24,05,11,0.00
2018,02,24,05,12,0.00
2018,02,24,05,13,0.00
2018,02,24,05,14,0.00
2018,02,24,05,15,0.00
2018,02,24,05,16,0.00
2018,02,24,05,17,0.00
2018,02,24,05,18,0.00
2018,02,24,05,19,0.00
2018,02,24,05,20,0.00
2018,02,24,05,21,0.00
2018,02,24,05,22,0.00
2018,02,24,05,23,0.00
2018,02,24,05,24,0.00
2018,02,24,05,25,0.00
2018,02,24,05,26,0.00
2018,02,24,05,27,0.00
2018,02,24,05,28,0.00
2018,02,24,05,29,0.00
2018,02,24,05,30,0.00
2018,02,24,05,31,0.00
2018,02,24,05,32,0.00
2018,02,24,05,33,0.00
2018,02,24,05,34,0.00
2018,02,24,05,35,0.00
2018,02,24,05,36,0.00
2018,02,24,05,37,0.00
2018,02,24,05,38,0.00
2018,02,24,05,39,0.00
2018,02,24,05,40,0.00
2018,02,24,05,41,0.00
2018,02,24,05,42,0.00
2018,02,24,05,43,0.00
2018,02,24,05,44,0.00
2018,02,24,05,45,0.00
2018,02,24,05,46,0.00
2018,02,24,05,47,0.00
2018,02,24,05,48,0.00
2018,02,24,05,49,0.00
2018,02,24,05,50,0.00
2018,02,24,05,51,0.00
2018,02,24,05,52,0.00
2018,02,24,05,53,0.00
2018,02,24,05,54,0.00
2018,02,24,05,55,0.00
2018,02,24,05,56,0.00
2018,02,24,05,57,0.00
2018,02,24,05,58,0.00
2018,02,24,05,59,0.00
2018,02,24,06,00,0.00
2018,02,24,06,01,0.00
2018,02,24,06,02,0.00
2018,02,24,06,03,0.00
2018,02,24,06,04,0.00
2018,02,24,06,05,0.00
2018,02,24,06,06,0.00
2018,02,24,06,07,0.00
2018,02,24,06,08,0.00
2018,02,24,06,09,0.00
2018,02,24,06,10,0.00
2018,02,24,06,11,0.00
2018,02,24,06,12,0.00
2018,02,24,06,13,0.00
2018,02,24,06,14,0.00
2018,02,24,06,15,0.00
2018,02,24,06,16,0.00
2018,02,24,06,17,0.00
2018,02,24,06,18,0.00
2018,02,24,06,19,0.00
2018,02,24,06,20,0.00
2018,02,24,06,21,0.00
2018,02,24,06,22,0.00
2018,02,24,06,23,0.00
2018,02,24,06,24,0.00
2018,02,24,06,25,0.00
2018,02,24,06,26,0.00
2018,02,24,06,27,0.00
2018,02,24,06,28,0.00
2018,02,24,06,29,0.00
2018,02,24,06,30,0.00
2018,02,24,06,31,0.00
2018,02,24,06,32,0.00
2018,02,24,06,33,0.00
2018,02,24,06,34,0.00
2018,02,24,06,35,0.00
2018,02,24,06,36,0.00
2018,02,24,06,37,0.00
2018,02,24,06,38,0.00
2018,02,24,06,39,0.00
2018,02,24,06,40,0.00
2018,02,24,06,41,0.00
2018,02,24,06,42,0.00
2018,02,24,06,43,0.00
2018,02,24,06,44,0.00
2018,02,24,06,45,0.00
2018,02,24,06,46,0.00
2018,02,24,06,47,0.00
2018,02,24,06,48,0.00
2018,02,24,06,49,0.00
2018,02,24,06,50,0.00
2018,02,24,06,51,0.00
2018,02,24,06,52,0.00
2018,02,24,06,53,0.00
2018,02,24,06,54,0.00
2018,02,24,06,55,0.00
2018,02,24,06,56,0.00
2018,02,24,06,57,0.00
2018,02,24,06,58,0.00
2018,02,24,06,59,0.00
2018,02,24,07,00,0.00
2018,02,24,07,01,0.00
2018,02,24,07,02,0.00
2018,02,24,07,03,0.00
2018,02,24,07,04,0.00
2018,02,24,07,05,0.00
2018,02,24,07,06,0.00
2018,02,24,07,07,0.00
2018,02,24,07,08,0.00
2018,02,24,07,09,0.00
2018,02,24,07,10,0.00
2018,02,24,07,11,0.00
2018,02,24,07,12,0.00
2018,02,24,07,13,5.00
2018,02,24,07,14,5.00
2018,02,24,07,15,5.00
2018,02,24,07,16,5.00
2018,02,24,07,17,5.90
2018,02,24,07,18,7.00
2018,02,24,07,19,7.00
2018,02,24,07,20,8.40
2018,02,24,07,21,9.00
2018,02,24,07,22,9.00
2018,02,24,07,23,9.00
2018,02,24,07,24,11.00
2018,02,24,07,25,11.00
2018,02,24,07,26,11.00
2018,02,24,07,27,11.00
2018,02,24,07,28,11.40
2018,02,24,07,29,12.00
2018,02,24,07,30,13.20
2018,02,24,07,31,14.00
2018,02,24,07,32,14.00
2018,02,24,07,33,14.00
2018,02,24,07,34,14.00
2018,02,24,07,35,16.00
2018,02,24,07,36,16.00
2018,02,24,07,37,16.00
2018,02,24,07,38,16.70
2018,02,24,07,39,18.00
2018,02,24,07,40,18.00
2018,02,24,07,41,18.00
2018,02,24,07,42,18.70
2018,02,24,07,43,19.00
2018,02,24,07,44,19.00
2018,02,24,07,45,19.00
2018,02,24,07,46,19.00
2018,02,24,07,47,19.40
2018,02,24,07,48,21.00
2018,02,24,07,49,21.70
2018,02,24,07,50,23.00
2018,02,24,07,51,23.00
2018,02,24,07,52,23.00
2018,02,24,07,53,23.00
2018,02,24,07,54,23.00
2018,02,24,07,55,24.70
2018,02,24,07,56,25.00
2018,02,24,07,57,25.00
2018,02,24,07,58,25.00
2018,02,24,07,59,25.30
2018,02,24,08,00,26.70
2018,02,24,08,01,27.10
2018,02,24,08,02,27.00
2018,02,24,08,03,31.00
2018,02,24,08,04,37.00
2018,02,24,08,05,39.70
2018,02,24,08,06,37.40
2018,02,24,08,07,33.30
2018,02,24,08,08,32.90
2018,02,24,08,09,31.60
2018,02,24,08,10,30.00
2018,02,24,08,11,30.00
2018,02,24,08,12,30.00
2018,02,24,08,13,31.00
2018,02,24,08,14,32.60
2018,02,24,08,15,33.00
2018,02,24,08,16,37.40
2018,02,24,08,17,37.30
2018,02,24,08,18,35.10
2018,02,24,08,19,38.70
2018,02,24,08,20,34.40
2018,02,24,08,21,32.80
2018,02,24,08,22,34.30
2018,02,24,08,23,33.00
2018,02,24,08,24,36.60
2018,02,24,08,25,40.00
2018,02,24,08,26,38.00
2018,02,24,08,27,35.50
2018,02,24,08,28,33.40
2018,02,24,08,29,34.90
2018,02,24,08,30,36.00
2018,02,24,08,31,48.30
2018,02,24,08,32,76.60
2018,02,24,08,33,115.50
2018,02,24,08,34,141.20
2018,02,24,08,35,152.10
2018,02,24,08,36,159.10
2018,02,24,08,37,165.50
2018,02,24,08,38,170.10
2018,02,24,08,39,173.60
2018,02,24,08,40,182.30
2018,02,24,08,41,186.00
2018,02,24,08,42,186.70
2018,02,24,08,43,190.80
2018,02,24,08,44,193.00
2018,02,24,08,45,193.80
2018,02,24,08,46,196.00
2018,02,24,08,47,198.20
2018,02,24,08,48,199.70
2018,02,24,08,49,201.60
2018,02,24,08,50,205.40
2018,02,24,08,51,206.90
2018,02,24,08,52,211.10
2018,02,24,08,53,213.60
2018,02,24,08,54,216.00
2018,02,24,08,55,216.70
2018,02,24,08,56,218.80
2018,02,24,08,57,220.50
2018,02,24,08,58,221.00
2018,02,24,08,59,222.40
2018,02,24,09,00,223.00
2018,02,24,09,01,223.00
2018,02,24,09,02,220.60
2018,02,24,09,03,229.30
2018,02,24,09,04,232.40
2018,02,24,09,05,234.00
2018,02,24,09,06,234.00
2018,02,24,09,07,234.90
2018,02,24,09,08,236.00
2018,02,24,09,09,237.80
2018,02,24,09,10,240.40
2018,02,24,09,11,237.30
2018,02,24,09,12,195.30
2018,02,24,09,13,228.60
2018,02,24,09,14,233.40
2018,02,24,09,15,218.60
2018,02,24,09,16,242.00
2018,02,24,09,17,242.00
2018,02,24,09,18,248.80
2018,02,24,09,19,251.60
2018,02,24,09,20,253.00
2018,02,24,09,21,254.30
2018,02,24,09,22,255.00
2018,02,24,09,23,256.70
2018,02,24,09,24,251.40
2018,02,24,09,25,260.10
2018,02,24,09,26,262.40
2018,02,24,09,27,264.00
2018,02,24,09,28,265.70
2018,02,24,09,29,269.00
2018,02,24,09,30,270.00
2018,02,24,09,31,272.80
2018,02,24,09,32,275.40
2018,02,24,09,33,277.60
2018,02,24,09,34,282.30
2018,02,24,09,35,245.20
2018,02,24,09,36,272.10
2018,02,24,09,37,282.10
2018,02,24,09,38,287.30
2018,02,24,09,39,288.70
2018,02,24,09,40,290.90
2018,02,24,09,41,293.60
2018,02,24,09,42,296.30
2018,02,24,09,43,282.20
2018,02,24,09,44,277.60
2018,02,24,09,45,292.50
2018,02,24,09,46,300.90
2018,02,24,09,47,304.00
2018,02,24,09,48,304.00
2018,02,24,09,49,302.70
2018,02,24,09,50,298.30
2018,02,24,09,51,299.00
2018,02,24,09,52,304.10
2018,02,24,09,53,304.80
2018,02,24,09,54,302.70
2018,02,24,09,55,301.30
2018,02,24,09,56,296.10
2018,02,24,09,57,295.00
2018,02,24,09,58,293.50
2018,02,24,09,59,287.00
2018,02,24,10,00,285.40
2018,02,24,10,01,284.30
2018,02,24,10,02,294.00
2018,02,24,10,03,288.10
2018,02,24,10,04,274.40
2018,02,24,10,05,298.00
2018,02,24,10,06,298.10
2018,02,24,10,07,304.40
2018,02,24,10,08,312.50
2018,02,24,10,09,318.10
2018,02,24,10,10,317.00
2018,02,24,10,11,307.60
2018,02,24,10,12,313.30
2018,02,24,10,13,311.30
2018,02,24,10,14,315.30
2018,02,24,10,15,303.10
2018,02,24,10,16,316.30
2018,02,24,10,17,316.10
2018,02,24,10,18,326.60
2018,02,24,10,19,331.40
2018,02,24,10,20,325.00
2018,02,24,10,21,340.40
2018,02,24,10,22,340.60
2018,02,24,10,23,349.50
2018,02,24,10,24,347.10
2018,02,24,10,25,344.80
2018,02,24,10,26,326.10
2018,02,24,10,27,333.70
2018,02,24,10,28,340.60
2018,02,24,10,29,356.00
2018,02,24,10,30,357.10
2018,02,24,10,31,360.00
2018,02,24,10,32,360.40
2018,02,24,10,33,359.40
2018,02,24,10,34,353.70
2018,02,24,10,35,361.10
2018,02,24,10,36,361.80
2018,02,24,10,37,364.10
2018,02,24,10,38,371.70
2018,02,24,10,39,373.00
2018,02,24,10,40,373.00
2018,02,24,10,41,373.00
2018,02,24,10,42,376.70
2018,02,24,10,43,386.60
2018,02,24,10,44,381.20
2018,02,24,10,45,354.30
2018,02,24,10,46,346.80
2018,02,24,10,47,350.90
2018,02,24,10,48,399.00
2018,02,24,10,49,252.30
2018,02,24,10,50,204.20
2018,02,24,10,51,187.40
2018,02,24,10,52,190.70
2018,02,24,10,53,392.00
2018,02,24,10,54,392.00
2018,02,24,10,55,405.20
2018,02,24,10,56,443.00
2018,02,24,10,57,443.00
2018,02,24,10,58,392.70
2018,02,24,10,59,363.80
2018,02,24,11,00,370.00
2018,02,24,11,01,355.30
2018,02,24,11,02,352.00
2018,02,24,11,03,485.80
2018,02,24,11,04,476.30
2018,02,24,11,05,297.10
2018,02,24,11,06,253.80
2018,02,24,11,07,210.10
2018,02,24,11,08,203.10
2018,02,24,11,09,213.70
2018,02,24,11,10,228.30
2018,02,24,11,11,263.30
2018,02,24,11,12,285.00
2018,02,24,11,13,311.70
2018,02,24,11,14,403.00
2018,02,24,11,15,347.80
2018,02,24,11,16,288.30
2018,02,24,11,17,277.90
2018,02,24,11,18,274.30
2018,02,24,11,19,277.70
2018,02,24,11,20,277.90
2018,02,24,11,21,319.40
2018,02,24,11,22,330.30
2018,02,24,11,23,334.60
2018,02,24,11,24,273.30
2018,02,24,11,25,242.60
2018,02,24,11,26,228.40
2018,02,24,11,27,220.60
2018,02,24,11,28,226.60
2018,02,24,11,29,257.00
2018,02,24,11,30,282.40
2018,02,24,11,31,292.10
2018,02,24,11,32,285.40
2018,02,24,11,33,291.70
2018,02,24,11,34,274.00
2018,02,24,11,35,286.60
2018,02,24,11,36,246.50
2018,02,24,11,37,281.20
2018,02,24,11,38,343.40
2018,02,24,11,39,347.00
2018,02,24,11,40,410.70
2018,02,24,11,41,420.40
2018,02,24,11,42,369.60
2018,02,24,11,43,403.40
2018,02,24,11,44,447.30
2018,02,24,11,45,449.30
2018,02,24,11,46,443.70
2018,02,24,11,47,428.50
2018,02,24,11,48,406.00
2018,02,24,11,49,445.10
2018,02,24,11,50,442.80
2018,02,24,11,51,447.30
2018,02,24,11,52,447.60
2018,02,24,11,53,450.00
2018,02,24,11,54,451.20
2018,02,24,11,55,454.10
2018,02,24,11,56,452.70
2018,02,24,11,57,434.20
2018,02,24,11,58,437.50
2018,02,24,11,59,442.20
2018,02,24,12,00,450.30
2018,02,24,12,01,446.10
2018,02,24,12,02,458.00
2018,02,24,12,03,419.60
2018,02,24,12,04,338.60
2018,02,24,12,05,278.30
2018,02,24,12,06,288.30
2018,02,24,12,07,353.40
2018,02,24,12,08,382.30
2018,02,24,12,09,379.20
2018,02,24,12,10,408.40
2018,02,24,12,11,452.60
2018,02,24,12,12,450.10
2018,02,24,12,13,430.10
2018,02,24,12,14,416.00
2018,02,24,12,15,401.10
2018,02,24,12,16,374.20
2018,02,24,12,17,345.80
2018,02,24,12,18,360.00
2018,02,24,12,19,348.10
2018,02,24,12,20,290.60
2018,02,24,12,21,251.10
2018,02,24,12,22,260.00
2018,02,24,12,23,301.20
2018,02,24,12,24,398.30
2018,02,24,12,25,371.00
2018,02,24,12,26,377.10
2018,02,24,12,27,375.90
2018,02,24,12,28,373.00
2018,02,24,12,29,373.70
2018,02,24,12,30,375.70
2018,02,24,12,31,343.60
2018,02,24,12,32,297.00
2018,02,24,12,33,288.90
2018,02,24,12,34,261.80
2018,02,24,12,35,287.00
2018,02,24,12,36,296.80
2018,02,24,12,37,317.20
2018,02,24,12,38,310.00
2018,02,24,12,39,333.70
2018,02,24,12,40,360.40
2018,02,24,12,41,405.90
2018,02,24,12,42,450.70
2018,02,24,12,43,452.20
2018,02,24,12,44,431.50
2018,02,24,12,45,408.70
2018,02,24,12,46,398.00
2018,02,24,12,47,350.00
2018,02,24,12,48,319.90
2018,02,24,12,49,296.10
2018,02,24,12,50,316.30
2018,02,24,12,51,383.50
2018,02,24,12,52,393.80
2018,02,24,12,53,452.20
2018,02,24,12,54,474.60
2018,02,24,12,55,474.80
2018,02,24,12,56,489.90
2018,02,24,12,57,425.70
2018,02,24,12,58,412.10
2018,02,24,12,59,448.30
2018,02,24,13,00,461.10
2018,02,24,13,01,434.50
2018,02,24,13,02,348.10
2018,02,24,13,03,294.90
2018,02,24,13,04,226.00
2018,02,24,13,05,311.90
2018,02,24,13,06,341.80
2018,02,24,13,07,312.00
2018,02,24,13,08,309.00
2018,02,24,13,09,309.00
2018,02,24,13,10,304.90
2018,02,24,13,11,359.10
2018,02,24,13,12,381.70
2018,02,24,13,13,313.90
2018,02,24,13,14,306.40
2018,02,24,13,15,306.10
2018,02,24,13,16,311.00
2018,02,24,13,17,313.20
2018,02,24,13,18,319.10
2018,02,24,13,19,328.30
2018,02,24,13,20,376.60
2018,02,24,13,21,416.40
2018,02,24,13,22,438.50
2018,02,24,13,23,428.70
2018,02,24,13,24,437.50
2018,02,24,13,25,464.90
2018,02,24,13,26,433.40
2018,02,24,13,27,487.90
2018,02,24,13,28,400.60
2018,02,24,13,29,331.90
2018,02,24,13,30,312.30
2018,02,24,13,31,338.00
2018,02,24,13,32,336.80
2018,02,24,13,33,309.70
2018,02,24,13,34,299.90
2018,02,24,13,35,273.70
2018,02,24,13,36,235.50
2018,02,24,13,37,203.10
2018,02,24,13,38,195.50
2018,02,24,13,39,202.70
2018,02,24,13,40,211.70
2018,02,24,13,41,222.00
2018,02,24,13,42,214.00
2018,02,24,13,43,207.60
2018,02,24,13,44,202.80
2018,02,24,13,45,200.60
2018,02,24,13,46,203.00
2018,02,24,13,47,206.50
2018,02,24,13,48,215.30
2018,02,24,13,49,229.00
2018,02,24,13,50,219.50
2018,02,24,13,51,213.30
2018,02,24,13,52,212.30
2018,02,24,13,53,204.60
2018,02,24,13,54,198.00
2018,02,24,13,55,195.80
2018,02,24,13,56,195.00
2018,02,24,13,57,193.40
2018,02,24,13,58,193.00
2018,02,24,13,59,194.90
2018,02,24,14,00,198.60
2018,02,24,14,01,195.90
2018,02,24,14,02,203.40
2018,02,24,14,03,218.90
2018,02,24,14,04,229.00
2018,02,24,14,05,220.70
2018,02,24,14,06,213.60
2018,02,24,14,07,218.20
2018,02,24,14,08,218.40
2018,02,24,14,09,218.00
2018,02,24,14,10,220.80
2018,02,24,14,11,229.30
2018,02,24,14,12,231.60
2018,02,24,14,13,228.70
2018,02,24,14,14,222.70
2018,02,24,14,15,215.80
2018,02,24,14,16,210.90
2018,02,24,14,17,207.20
2018,02,24,14,18,206.00
2018,02,24,14,19,199.00
2018,02,24,14,20,197.00
2018,02,24,14,21,201.90
2018,02,24,14,22,209.00
2018,02,24,14,23,209.90
2018,02,24,14,24,213.20
2018,02,24,14,25,209.10
2018,02,24,14,26,201.10
2018,02,24,14,27,187.70
2018,02,24,14,28,173.90
2018,02,24,14,29,162.70
2018,02,24,14,30,160.00
2018,02,24,14,31,160.00
2018,02,24,14,32,145.20
2018,02,24,14,33,142.00
2018,02,24,14,34,141.90
2018,02,24,14,35,140.00
2018,02,24,14,36,136.00
2018,02,24,14,37,133.20
2018,02,24,14,38,133.00
2018,02,24,14,39,137.00
2018,02,24,14,40,140.30
2018,02,24,14,41,138.00
2018,02,24,14,42,132.90
2018,02,24,14,43,130.10
2018,02,24,14,44,137.90
2018,02,24,14,45,150.60
2018,02,24,14,46,161.30
2018,02,24,14,47,169.70
2018,02,24,14,48,184.70
2018,02,24,14,49,193.00
2018,02,24,14,50,188.30
2018,02,24,14,51,180.20
2018,02,24,14,52,174.90
2018,02,24,14,53,174.00
2018,02,24,14,54,174.00
2018,02,24,14,55,172.40
2018,02,24,14,56,181.10
2018,02,24,14,57,208.60
2018,02,24,14,58,246.30
2018,02,24,14,59,265.80
2018,02,24,15,00,270.70
2018,02,24,15,01,272.70
2018,02,24,15,02,261.00
2018,02,24,15,03,237.00
2018,02,24,15,04,218.60
2018,02,24,15,05,234.50
2018,02,24,15,06,285.50
2018,02,24,15,07,289.90
2018,02,24,15,08,275.10
2018,02,24,15,09,263.70
2018,02,24,15,10,248.90
2018,02,24,15,11,230.80
2018,02,24,15,12,222.00
2018,02,24,15,13,220.70
2018,02,24,15,14,218.80
2018,02,24,15,15,213.70
2018,02,24,15,16,206.50
2018,02,24,15,17,199.60
2018,02,24,15,18,193.70
2018,02,24,15,19,186.70
2018,02,24,15,20,181.30
2018,02,24,15,21,173.50
2018,02,24,15,22,162.30
2018,02,24,15,23,156.80
2018,02,24,15,24,155.30
2018,02,24,15,25,152.00
2018,02,24,15,26,148.40
2018,02,24,15,27,144.30
2018,02,24,15,28,140.90
2018,02,24,15,29,139.00
2018,02,24,15,30,138.00
2018,02,24,15,31,134.00
2018,02,24,15,32,130.40
2018,02,24,15,33,127.50
2018,02,24,15,34,124.60
2018,02,24,15,35,119.70
2018,02,24,15,36,114.10
2018,02,24,15,37,109.60
2018,02,24,15,38,104.40
2018,02,24,15,39,99.70
2018,02,24,15,40,96.60
2018,02,24,15,41,95.00
2018,02,24,15,42,95.00
2018,02,24,15,43,95.00
2018,02,24,15,44,95.00
2018,02,24,15,45,95.00
2018,02,24,15,46,95.00
2018,02,24,15,47,96.60
2018,02,24,15,48,101.30
2018,02,24,15,49,104.80
2018,02,24,15,50,107.10
2018,02,24,15,51,109.70
2018,02,24,15,52,113.80
2018,02,24,15,53,117.30
2018,02,24,15,54,120.00
2018,02,24,15,55,120.00
2018,02,24,15,56,120.00
2018,02,24,15,57,120.00
2018,02,24,15,58,120.00
2018,02,24,15,59,120.80
2018,02,24,16,00,118.20
2018,02,24,16,01,115.80
2018,02,24,16,02,113.00
2018,02,24,16,03,113.00
2018,02,24,16,04,113.00
2018,02,24,16,05,112.20
2018,02,24,16,06,109.10
2018,02,24,16,07,105.20
2018,02,24,16,08,101.30
2018,02,24,16,09,98.50
2018,02,24,16,10,97.10
2018,02,24,16,11,93.30
2018,02,24,16,12,85.60
2018,02,24,16,13,80.10
2018,02,24,16,14,75.00
2018,02,24,16,15,71.30
2018,02,24,16,16,70.00
2018,02,24,16,17,71.00
2018,02,24,16,18,72.00
2018,02,24,16,19,72.00
2018,02,24,16,20,69.80
2018,02,24,16,21,67.40
2018,02,24,16,22,63.30
2018,02,24,16,23,59.70
2018,02,24,16,24,55.60
2018,02,24,16,25,54.00
2018,02,24,16,26,54.00
2018,02,24,16,27,53.60
2018,02,24,16,28,53.00
2018,02,24,16,29,51.90
2018,02,24,16,30,49.60
2018,02,24,16,31,47.40
2018,02,24,16,32,46.10
2018,02,24,16,33,45.90
2018,02,24,16,34,44.00
2018,02,24,16,35,43.60
2018,02,24,16,36,41.50
2018,02,24,16,37,39.60
2018,02,24,16,38,39.00
2018,02,24,16,39,39.00
2018,02,24,16,40,39.00
2018,02,24,16,41,36.20
2018,02,24,16,42,33.40
2018,02,24,16,43,30.40
2018,02,24,16,44,28.10
2018,02,24,16,45,25.90
2018,02,24,16,46,25.00
2018,02,24,16,47,25.00
2018,02,24,16,48,25.00
2018,02,24,16,49,25.40
2018,02,24,16,50,27.00
2018,02,24,16,51,28.00
2018,02,24,16,52,28.00
2018,02,24,16,53,26.50
2018,02,24,16,54,26.00
2018,02,24,16,55,25.10
2018,02,24,16,56,23.00
2018,02,24,16,57,23.00
2018,02,24,16,58,22.50
2018,02,24,16,59,21.00
2018,02,24,17,00,21.00
2018,02,24,17,01,22.10
2018,02,24,17,02,23.00
2018,02,24,17,03,23.00
2018,02,24,17,04,21.50
2018,02,24,17,05,19.30
2018,02,24,17,06,18.10
2018,02,24,17,07,18.00
2018,02,24,17,08,17.60
2018,02,24,17,09,16.00
2018,02,24,17,10,15.30
2018,02,24,17,11,14.00
2018,02,24,17,12,13.00
2018,02,24,17,13,12.00
2018,02,24,17,14,12.00
2018,02,24,17,15,12.00
2018,02,24,17,16,12.00
2018,02,24,17,17,11.10
2018,02,24,17,18,12.00
2018,02,24,17,19,12.00